[Iaude] MPEC S66: 2023 SV [a=1.44,e=0.32,i=16.0,H=24.8]

mpec at marsden.cfa.harvard.edu mpec at marsden.cfa.harvard.edu
Tue Sep 19 07:23:02 EDT 2023


M.P.E.C. 2023-S66                            Issued 2023 September 19, 11:21 UT

     The Minor Planet Electronic Circulars contain information on unusual
         minor planets, routine data on comets and natural satellites,
         and occasional editorial announcements.  They are published
    on behalf of Division F of the International Astronomical Union by the
          Minor Planet Center, Smithsonian Astrophysical Observatory,
                          Cambridge, MA 02138, U.S.A.
			  
             Prepared using the Tamkin Foundation Computer Network

                              MPC at CFA.HARVARD.EDU
            URL https://www.minorplanetcenter.net/    ISSN 1523-6714

                                    2023 SV                                     


Observations:
     K23S00V  C2023 09 08.41201500 06 31.136+32 19 04.59         21.09GVES066F52
     K23S00V  C2023 09 08.42345200 06 32.624+32 17 03.50         21.22GVES066F52
     K23S00V  C2023 09 08.43488400 06 34.073+32 15 01.82         21.57GVES066F52
     K23S00V  C2023 09 08.44636200 06 35.512+32 12 59.86         21.15GVES066F52
     K23S00V* C2023 09 17.43341000 22 53.797+08 04 44.93         21.58wXES066F52
     K23S00V  C2023 09 17.44324000 22 54.207+08 03 25.14         21.60wXES066F52
     K23S00V  C2023 09 17.46285100 22 55.080+08 00 45.77         21.48wXES066F52
     K23S00V  C2023 09 17.51246400 22 57.264+07 54 02.75         21.20GVES066F52
     K23S00V  C2023 09 17.51309900 22 57.291+07 53 57.46         21.42GVES066F52
     K23S00V KC2023 09 18.23185000 23 49.261+06 18 30.13         21.63GVES066I52
     K23S00V KC2023 09 18.23497800 23 49.398+06 18 05.40         21.02GVES066I52
     K23S00V KC2023 09 18.23691900 23 49.506+06 17 51.11         20.81GVES066I52
     K23S00V KC2023 09 18.23886700 23 49.531+06 17 35.56         21.68GVES066I52
     K23S00V 3C2023 09 18.53234300 24 04.530+05 39 58.56         21.53GVES066T14
     K23S00V 3C2023 09 18.53332100 24 04.569+05 39 51.02         21.37GVES066T14
     K23S00V 3C2023 09 18.53430600 24 04.607+05 39 43.44         21.38GVES066T14
     K23S00V 1C2023 09 19.27874900 24 53.377+04 06 11.09         20.66GVES066G96
     K23S00V 1C2023 09 19.28395000 24 53.557+04 05 32.64         21.57GVES066G96
     K23S00V 1C2023 09 19.28914600 24 53.773+04 04 54.59         21.63GVES066G96
     K23S00V 1C2023 09 19.29434900 24 53.960+04 04 16.50         21.11GVES066G96

Observer details:
F52 Pan-STARRS 2, Haleakala.  Observers J. Bulger, K. Chambers, T. Dukes, T.
    Lowe, P. Minguez, A. Schultz, I. Smith.  Measurers S. Chastel, J.
    Fairlamb, M. Huber, Y. Ramanjooloo, R. Wainscoat, R. Weryk, K. Chambers,
    T. de Boer, J. Bulger, H. Gao, C.-C. Lin, T. Lowe, E. Magnier, P. Minguez,
    A. Schultz, I. Smith.  1.8-m Ritchey-Chretien + CCD.
G96 Mt. Lemmon Survey.  Observer J. K. Hogan.  Measurers E. J. Christensen, D.
    Fay, J. B. Fazekas, D. C. Fuls, A. R. Gibbs, A. D. Grauer, H. Groeller, J.
    K. Hogan, R. A. Kowalski, S. M. Larson, G. J. Leonard, D. Rankin, R. L.
    Seaman, A. Serrano, F. C. Shelly, K. W. Wierzchos.  1.5-m reflector + 10K
    CCD.
I52 Steward Observatory, Mt. Lemmon Station.  Observer K. W. Wierzchos.
    Measurers E. J. Christensen, D. Fay, J. B. Fazekas, D. C. Fuls, A. R.
    Gibbs, A. D. Grauer, H. Groeller, J. K. Hogan, R. A. Kowalski, S. M.
    Larson, G. J. Leonard, D. Rankin, R. L. Seaman, A. Serrano, F. C. Shelly,
    K. W. Wierzchos.  1.0-m prime focus + CCD.
T14 Canada-France-Hawaii Telescope, Maunakea.  Observers R. Wainscoat, H.
    Januszewski, H. Flewelling.  Measurers R. Weryk, R. Wainscoat.  3.6-m
    Canada-France-Hawaii Telescope + CCD.

Orbital elements:
2023 SV                                                  Earth MOID = 0.1003 AU
Epoch 2023 Sept. 13.0 TT = JDT 2460200.5                Veres                   
M  32.10887              (2000.0)            P               Q                  
n   0.56950319     Peri.  113.55500     +0.36426090     +0.93123205             
a   1.4414689      Node   177.71977     -0.92299296     +0.36256072             
e   0.3220251      Incl.   16.04071     -0.12408861     +0.03683200             
P   1.73           H   24.85          G   0.15           U   8                  
Residuals in seconds of arc
230908 F52  0.4-  0.4+    230917 F52  0.1+  0.2+    230918 T14  0.0   0.0
230908 F52  0.1+  0.3+    230917 F52  0.1+  0.0     230918 T14  0.0   0.0
230908 F52  0.1+  0.3-    230918 I52  0.3+  0.1-    230919 G96  0.1-  0.0
230908 F52  0.1+  0.4-    230918 I52  0.2+  0.5-    230919 G96  0.3-  0.1-
230917 F52  0.1+  0.5+    230918 I52  0.5+  0.3+    230919 G96  0.0   0.0
230917 F52  0.3-  0.6+    230918 I52  0.5-  0.1-    230919 G96  0.2-  0.2+
230917 F52  0.0   0.4+    230918 T14  0.0   0.0

Ephemeris:
2023 SV                  a,e,i = 1.44, 0.32, 16                  q = 0.9773
Date    TT    R. A. (2000) Decl.     Delta      r    Elong.  Phase     V
2023 08 20    21 21 33.0 +75 31 27   0.1478  1.0269    91.6    80.1    23.6
...
2023 09 04    23 51 43.4 +45 15 21   0.1127  1.0780   125.4    49.7    22.1
...
2023 09 12    00 14 40.1 +21 55 09   0.1175  1.1102   150.2    26.8    21.6
...
2023 09 18    00 23 31.7 +06 49 25   0.1345  1.1360   165.9    12.5    21.5
2023 09 19    00 24 35.4 +04 41 16   0.1383  1.1404   167.8    10.7    21.5
2023 09 20    00 25 33.7 +02 40 00   0.1424  1.1449   169.5     9.2    21.5
...
2023 09 26    00 29 55.2 -07 11 30   0.1714  1.1722   170.3     8.3    21.9
...
2023 10 04    00 33 20.1 -15 27 11   0.2196  1.2098   160.5    16.0    22.8
...
2023 10 19    00 37 48.9 -22 04 21   0.3303  1.2822   145.5    26.1    24.2

M. P. C. Staff               (C) Copyright 2023 MPC           M.P.E.C. 2023-S66





More information about the Iaude mailing list